Location: Brede
(50.9167°N, 0.6000°E)
Time: 18:37:04
(UTC+00:00)

Explorer 11/Cluster Stage 4 - Visible Passes

Search period start: 19 June 2021 00:00
Search period end: 29 June 2021 00:00
Orbit: 467 x 1257 km, 28.8° (Epoch: 18 June)

Date Brightness Start Highest point End Pass type
(mag) Time Alt. Az. Time Alt. Az. Time Alt. Az.
23 Jun 9.3 02:26:08 10° S 02:27:28 10° SSE 02:28:48 10° SSE visible
24 Jun 9.2 02:13:51 10° S 02:16:00 11° SSE 02:18:11 10° SSE visible
25 Jun 9.1 02:02:10 10° S 02:04:33 12° SSE 02:07:11 10° SSE visible
26 Jun 9.0 01:51:24 11° S 01:53:07 12° SSE 01:55:58 10° SSE visible
27 Jun 9.0 01:40:43 12° S 01:41:40 12° S 01:44:38 10° SSE visible
28 Jun 9.0 01:30:09 12° S 01:30:14 12° S 01:33:09 10° SSE visible
